When you browse on this site, cookies collect data to enhance your experience and personalize the content and advertising you see.
Visit our Privacy Policy to learn more. By continuing to use the site, you agree to this use of cookies and data.
  • In Hungary
  • List of Countries
  • For 7 days
  • Water Temperature
  • Weather Map
  • News
  • Weather Widgets
  • user-avatar
    Login

    Hourly Weather Kitnemuchash

    Today, 14 October, Monday

    Time Temperature Precipitation Wind Pressure Humidity
    00:00 +6°C° 0.1 mm 7 mps 738 mmHg 81%
    01:00 +6°C° 0 mm 7 mps 739 mmHg 81%
    02:00 +5°C° 0 mm 7 mps 739 mmHg 81%
    03:00 +5°C° 0 mm 7 mps 740 mmHg 81%
    04:00 +5°C° 0 mm 7 mps 740 mmHg 83%
    05:00 +4°C° 0 mm 7 mps 740 mmHg 85%
    06:00 +4°C° 0 mm 7 mps 740 mmHg 87%
    07:00 +4°C° 0 mm 7 mps 741 mmHg 86%
    08:00 +4°C° 0 mm 7 mps 742 mmHg 84%
    09:00 +5°C° 0 mm 8 mps 742 mmHg 82%
    10:00 +5°C° 0 mm 7 mps 743 mmHg 80%
    11:00 +6°C° 0 mm 7 mps 743 mmHg 79%
    12:00 +6°C° 0 mm 7 mps 743 mmHg 77%
    13:00 +7°C° 0.1 mm 6 mps 744 mmHg 75%
    14:00 +8°C° 0.1 mm 6 mps 744 mmHg 73%
    15:00 +8°C° 0.1 mm 5 mps 744 mmHg 71%
    16:00 +7°C° 0 mm 5 mps 745 mmHg 74%
    17:00 +6°C° 0 mm 5 mps 745 mmHg 77%
    18:00 +5°C° 0 mm 5 mps 745 mmHg 80%
    19:00 +4°C° 0 mm 4 mps 745 mmHg 81%
    20:00 +4°C° 0 mm 3 mps 745 mmHg 82%
    21:00 +3°C° 0 mm 3 mps 746 mmHg 83%
    22:00 +3°C° 0 mm 3 mps 745 mmHg 86%
    23:00 +4°C° 0 mm 3 mps 745 mmHg 89%

    Tomorrow, 15 October, Tuesday

    Time Temperature Precipitation Wind Pressure Humidity
    00:00 +4°C° 0 mm 3 mps 744 mmHg 92%
    01:00 +4°C° 0.3 mm 3 mps 744 mmHg 93%
    02:00 +4°C° 0.3 mm 3 mps 743 mmHg 94%
    03:00 +5°C° 0.3 mm 3 mps 743 mmHg 95%
    04:00 +6°C° 0.9 mm 2 mps 742 mmHg 96%
    05:00 +5°C° 0.9 mm 2 mps 741 mmHg 96%
    06:00 +5°C° 0.9 mm 2 mps 740 mmHg 96%
    07:00 +4°C° 1 mm 3 mps 740 mmHg 95%
    08:00 +4°C° 1 mm 3 mps 740 mmHg 94%
    09:00 +4°C° 1 mm 4 mps 740 mmHg 93%
    10:00 +4°C° 0 mm 3 mps 741 mmHg 93%
    11:00 +4°C° 0 mm 3 mps 741 mmHg 92%
    12:00 +4°C° 0 mm 3 mps 742 mmHg 91%
    13:00 +4°C° 0 mm 4 mps 743 mmHg 89%
    14:00 +4°C° 0 mm 4 mps 743 mmHg 87%
    15:00 +4°C° 0 mm 4 mps 744 mmHg 85%
    16:00 +4°C° 0 mm 4 mps 745 mmHg 83%
    17:00 +3°C° 0 mm 5 mps 746 mmHg 81%
    18:00 +3°C° 0 mm 5 mps 747 mmHg 79%
    19:00 +2°C° 0 mm 5 mps 747 mmHg 80%
    20:00 +2°C° 0 mm 5 mps 748 mmHg 80%
    21:00 +1°C° 0 mm 5 mps 748 mmHg 81%
    22:00 +1°C° 0 mm 5 mps 749 mmHg 84%
    23:00 +1°C° 0 mm 5 mps 749 mmHg 88%

    Day after tomorrow, 16 October, Wednesday

    Time Temperature Precipitation Wind Pressure Humidity
    00:00 +1°C° 0 mm 5 mps 750 mmHg 92%
    01:00 +1°C° 0 mm 5 mps 750 mmHg 92%
    02:00 +1°C° 0 mm 5 mps 751 mmHg 91%
    03:00 0°C° 0 mm 4 mps 752 mmHg 91%
    04:00 0°C° 0 mm 4 mps 752 mmHg 91%
    05:00 -1°C° 0 mm 4 mps 752 mmHg 91%
    06:00 -1°C° 0 mm 4 mps 753 mmHg 91%
    07:00 -1°C° 0 mm 4 mps 753 mmHg 86%
    08:00 0°C° 0 mm 5 mps 754 mmHg 82%
    09:00 +1°C° 0 mm 5 mps 754 mmHg 78%
    10:00 +1°C° 0 mm 5 mps 754 mmHg 75%
    11:00 +2°C° 0 mm 5 mps 755 mmHg 73%
    12:00 +2°C° 0 mm 5 mps 755 mmHg 70%
    13:00 +3°C° 0 mm 4 mps 755 mmHg 72%
    14:00 +1°C° 0 mm 4 mps 755 mmHg 73%
    15:00 +1°C° 0 mm 4 mps 756 mmHg 74%
    16:00 +2°C° 0 mm 3 mps 756 mmHg 75%
    17:00 +1°C° 0 mm 3 mps 756 mmHg 76%
    18:00 +2°C° 0 mm 2 mps 756 mmHg 77%
    19:00 +2°C° 0 mm 2 mps 756 mmHg 79%
    20:00 +2°C° 0 mm 2 mps 756 mmHg 80%
    21:00 +1°C° 0 mm 2 mps 757 mmHg 81%
    22:00 +1°C° 0 mm 2 mps 757 mmHg 82%
    23:00 +1°C° 0 mm 2 mps 756 mmHg 83%

    17 October, Thursday

    Time Temperature Precipitation Wind Pressure Humidity
    00:00 +2°C° 0 mm 1 mps 756 mmHg 84%
    01:00 +1°C° 0 mm 2 mps 756 mmHg 84%
    02:00 +1°C° 0 mm 2 mps 756 mmHg 84%
    03:00 +1°C° 0 mm 2 mps 756 mmHg 83%
    04:00 0°C° 0.3 mm 3 mps 756 mmHg 88%
    05:00 0°C° 0.3 mm 3 mps 755 mmHg 92%
    06:00 -1°C° 0.3 mm 4 mps 755 mmHg 96%
    07:00 -1°C° 0.2 mm 4 mps 754 mmHg 94%
    08:00 -1°C° 0.2 mm 5 mps 753 mmHg 91%
    09:00 0°C° 0.2 mm 5 mps 752 mmHg 88%
    10:00 +1°C° 0 mm 6 mps 751 mmHg 83%
    11:00 +1°C° 0 mm 6 mps 751 mmHg 78%
    12:00 +2°C° 0 mm 7 mps 750 mmHg 73%
    13:00 +3°C° 0 mm 7 mps 749 mmHg 74%
    14:00 +4°C° 0 mm 6 mps 748 mmHg 74%
    15:00 +4°C° 0 mm 6 mps 747 mmHg 75%
    16:00 +5°C° 0.4 mm 6 mps 746 mmHg 80%
    17:00 +5°C° 0.4 mm 6 mps 745 mmHg 84%
    18:00 +5°C° 0.4 mm 6 mps 744 mmHg 88%
    19:00 +7°C° 0.9 mm 6 mps 743 mmHg 90%
    20:00 +8°C° 0.9 mm 6 mps 742 mmHg 92%
    21:00 +8°C° 0.9 mm 6 mps 741 mmHg 94%
    22:00 +8°C° 0.8 mm 6 mps 741 mmHg 94%
    23:00 +8°C° 0.8 mm 6 mps 740 mmHg 94%

    18 October, Friday

    Time Temperature Precipitation Wind Pressure Humidity
    00:00 +9°C° 0.8 mm 6 mps 740 mmHg 94%
    01:00 +6°C° 0.4 mm 7 mps 740 mmHg 92%
    02:00 +5°C° 0.4 mm 7 mps 740 mmHg 91%
    03:00 +2°C° 0.4 mm 8 mps 741 mmHg 89%
    04:00 +1°C° 0.1 mm 8 mps 742 mmHg 86%
    05:00 0°C° 0.1 mm 8 mps 742 mmHg 83%
    06:00 -1°C° 0.1 mm 9 mps 743 mmHg 80%
    07:00 -1°C° 0 mm 9 mps 744 mmHg 78%
    08:00 -3°C° 0 mm 9 mps 745 mmHg 77%
    09:00 -3°C° 0 mm 9 mps 746 mmHg 75%
    10:00 -3°C° 0 mm 9 mps 747 mmHg 74%
    11:00 -3°C° 0 mm 9 mps 748 mmHg 73%
    12:00 -3°C° 0 mm 9 mps 749 mmHg 72%
    13:00 -3°C° 0 mm 9 mps 750 mmHg 72%
    14:00 -3°C° 0 mm 9 mps 750 mmHg 72%
    15:00 -2°C° 0 mm 8 mps 751 mmHg 72%
    16:00 -4°C° 0 mm 8 mps 752 mmHg 73%
    17:00 -4°C° 0 mm 8 mps 753 mmHg 74%
    18:00 -4°C° 0 mm 7 mps 753 mmHg 75%
    19:00 -4°C° 0 mm 7 mps 754 mmHg 76%
    20:00 -4°C° 0 mm 6 mps 755 mmHg 78%
    21:00 -5°C° 0 mm 5 mps 755 mmHg 79%
    22:00 -5°C° 0 mm 5 mps 756 mmHg 81%
    23:00 -4°C° 0 mm 4 mps 756 mmHg 83%

    19 October, Saturday

    Time Temperature Precipitation Wind Pressure Humidity
    00:00 -5°C° 0 mm 4 mps 756 mmHg 85%
    01:00 -5°C° 0 mm 3 mps 757 mmHg 84%
    02:00 -5°C° 0 mm 3 mps 757 mmHg 84%
    03:00 -5°C° 0 mm 3 mps 757 mmHg 83%
    04:00 -5°C° 0 mm 3 mps 758 mmHg 83%
    05:00 -5°C° 0 mm 3 mps 758 mmHg 83%
    06:00 -4°C° 0 mm 2 mps 758 mmHg 83%
    07:00 -3°C° 0 mm 2 mps 758 mmHg 78%
    08:00 -3°C° 0 mm 2 mps 758 mmHg 73%
    09:00 -2°C° 0 mm 2 mps 759 mmHg 68%
    10:00 -1°C° 0 mm 2 mps 759 mmHg 63%
    11:00 +1°C° 0 mm 2 mps 758 mmHg 57%
    12:00 +2°C° 0 mm 2 mps 758 mmHg 52%
    13:00 +2°C° 0 mm 2 mps 758 mmHg 53%
    14:00 +1°C° 0 mm 3 mps 758 mmHg 54%
    15:00 +1°C° 0 mm 3 mps 757 mmHg 56%
    16:00 0°C° 0 mm 3 mps 757 mmHg 61%
    17:00 0°C° 0 mm 3 mps 757 mmHg 66%
    18:00 -1°C° 0 mm 2 mps 757 mmHg 71%
    19:00 -2°C° 0 mm 3 mps 757 mmHg 73%
    20:00 -2°C° 0 mm 3 mps 757 mmHg 74%
    21:00 -2°C° 0 mm 3 mps 757 mmHg 76%
    22:00 -2°C° 0 mm 3 mps 756 mmHg 76%
    23:00 -2°C° 0 mm 3 mps 756 mmHg 77%
    Show more